Regional Weather Roundup
Issued by NWS Burlington, VT

Home | Current Version | Previous Version | Text Only | Print | Product List | Glossary On
Versions: 1 2 3 4 5 6 7 8 9 10 11 12 13 14 15 16 17 18 19 20 21 22 23 24 25 26 27 28 29 30 31 32 33 34 35 36 37 38 39 40 41 42 43 44 45 46 47 48 49 50
000
ASUS41 KBTV 200130
RWRBTV
VERMONT REGIONAL WEATHER ROUNDUP
NATIONAL WEATHER SERVICE BURLINGTON VT
800 PM EST FRI JAN 19 2018

NOTE: "FAIR" INDICATES FEW OR NO CLOUDS BELOW 12,000 FEET WITH NO
SIGNIFICANT WEATHER AND/OR OBSTRUCTIONS TO VISIBILITY.

* THESE REPORTS ARE NOT UNDER NWS QUALITY CONTROL AND/OR DO NOT
  REPORT WEATHER SUCH AS PRECIPITATION AND FOG.

VTZ001>019-200200-
_____VERMONT_____


CITY           SKY/WX    TMP DP  RH WIND       PRES   REMARKS
BURLINGTON     CLOUDY    28  19  69 S13       29.83F WCI  17
MONTPELIER     CLOUDY    25  20  81 S9        29.83F WCI  15
MORRISVILLE    CLOUDY    26  20  77 SW6       29.81F WCI  19
ST. JOHNSBURY*   N/A     26  22  84 MISG      29.83F
LYNDONVILLE*   CLOUDY    24  21  90 E5        29.81F WCI  18
MIDDLEBURY*    FAIR      27  19  73 S7        29.85F WCI  19
RUTLAND*       FAIR      26  20  77 W5        29.87F WCI  20
SPRINGFIELD    FAIR      26  21  81 CALM      29.89F
HIGHGATE*      CLOUDY    28  21  76 S7G16     29.80F WCI  20
NEWPORT*       CLOUDY    26  21  82 S8        29.78F WCI  17
BENNINGTON     FAIR      21  17  84 CALM      29.89F
SUTTON*          N/A     21 N/A N/A MISG        N/A
ISLAND POND*     N/A     25 N/A N/A E3          N/A
GALLUP MILLS*    N/A     23 N/A N/A MISG        N/A
UNION VILLAGE*   N/A     25 N/A N/A MISG        N/A
MT. MANSFIELD*   N/A     18 N/A N/A W51         N/A  WCI  -6

_____LAKE CHAMPLAIN_____


CITY           SKY/WX    TMP DP  RH WIND       PRES   REMARKS
BURTON ISLAND*   N/A     28  25  86 S20G26      N/A  WCI  15
COLCHESTER RF*   N/A     30  25  80 S26         N/A  WCI  16
DIAMOND ISL*     N/A     30  23  74 SE17        N/A  WCI  18

$$

NYZ007-026>031-035-052-083-087-200200-
_____NORTHERN NEW YORK_____


CITY           SKY/WX    TMP DP  RH WIND       PRES   REMARKS
PLATTSBURGH    FAIR      27  21  78 S7        29.82F WCI  19
SARANAC LAKE   MOCLDY    22  20  92 SW9       29.74F WCI  12
MASSENA        FAIR      29  24  82 S13       29.77F WCI  19
OGDENSBURG*    FAIR      30  23  75 S9        29.76F WCI  21
POTSDAM*       CLOUDY    28  21  74 SW13G18   29.75F WCI  18
STARK FALLS*     N/A     27 N/A N/A S10         N/A  WCI  17
WATERTOWN      MOCLDY    31  19  61 S8        29.79F WCI  23
FT DRUM        CLEAR     26  18  73 SE10      29.80F WCI  16
ALBANY         MOCLDY    22  15  75 CALM      29.93F
GLENS FALLS    FAIR      25  18  74 SW5       29.90F WCI  19

$$
NHZ002-005-011-200200-
_____NEW HAMPSHIRE_____


CITY           SKY/WX    TMP DP  RH WIND       PRES   REMARKS
LEBANON        CLOUDY    28  21  75 S7        29.87S WCI  21
KEENE          FAIR      28  21  75 SW5       29.92R WCI  23
MT WASHINGTON  FOG       14  14 100 W51         N/A  VSB 1/16WCI -11
PLYMOUTH       CLOUDY    28  22  79 CALM      29.88S
WHITEFIELD     CLOUDY    25  22  88 CALM      29.81F

$$

_____REGIONAL QUEBEC LOCATIONS_____


CITY           SKY/WX    TMP DP  RH WIND       PRES   REMARKS
MONTREAL       FLURRIES  30  25  80 SW15      29.76F WCI  19
QUEBEC CITY    FRZ DRZL  27  23  86 SW8       29.74F FOG     WCI  18
SHERBROOKE     CLOUDY    27  21  80 SW6       29.76F WCI  20

_____REGIONAL ONTARIO LOCATIONS_____


CITY           SKY/WX    TMP DP  RH WIND       PRES   REMARKS
OTTAWA         CLOUDY    30  23  74 S14       29.72F WCI  20

______KEY______
VSB  - VISIBILITY IN MILES
WCI  - WIND CHILL INDEX
HX   - HEAT INDEX
$$
NNNN




USA.gov is the U.S. government's official web portal to all federal, state and local government web resources and services.